User: anonymous   Login
Location: Brantford
(43.1330°N, 80.2670°W)
Time: 17:42:06
(UTC-05:00)
Language:

Transit 2A Rocket - Orbit

View from above orbital plane
View from above orbital plane
View from above satellite
View from above satellite

Ground track
Ground track

The orbit data is extracted from the following two-line orbital elements,

1    47U 60007C   19325.59816140 -.00000023  00000-0  19775-4 0  9997
2    47  66.6665 353.4425 0220351  96.3191 266.3058 14.42059173105019
Epoch (UTC): 21 November 2019 14:21:21
Eccentricity: 0.0220351
inclination: 66.6665°
perigee height: 594 km
apogee height: 909 km
right ascension of ascending node: 353.4425°
argument of perigee: 96.3191°
revolutions per day: 14.42059173
mean anomaly at epoch: 266.3058°
orbit number at epoch: 10501

The dashed part of the orbit path shows where the satellite is in the earth's shadow,  

DLR